When you browse on this site, cookies collect data to enhance your experience and personalize the content and advertising you see.
Visit our Privacy Policy to learn more. By continuing to use the site, you agree to this use of cookies and data.
  • In Sweden
  • List of Countries
  • For 7 days
  • Water Temperature
  • Weather Map
  • Weather Widgets
  • user-avatar
    Login

    Hourly Weather Vennesla

    Today, 30 May, Saturday

    Time Temperature Precipitation Wind Pressure Humidity
    00:00 +11°C° 0 mm 1 mps 749 mmHg 68%
    01:00 +10°C° 0 mm 1 mps 749 mmHg 71%
    02:00 +10°C° 0 mm 1 mps 749 mmHg 71%
    03:00 +10°C° 0 mm 1 mps 749 mmHg 71%
    04:00 +9°C° 0 mm 2 mps 749 mmHg 71%
    05:00 +12°C° 0 mm 2 mps 750 mmHg 65%
    06:00 +14°C° 0 mm 2 mps 750 mmHg 59%
    07:00 +16°C° 0 mm 2 mps 750 mmHg 52%
    08:00 +17°C° 0 mm 3 mps 750 mmHg 48%
    09:00 +18°C° 0 mm 3 mps 750 mmHg 45%
    10:00 +19°C° 0 mm 4 mps 750 mmHg 41%
    11:00 +20°C° 0 mm 4 mps 750 mmHg 40%
    12:00 +20°C° 0 mm 4 mps 751 mmHg 39%
    13:00 +21°C° 0 mm 4 mps 751 mmHg 38%
    14:00 +21°C° 0 mm 4 mps 750 mmHg 39%
    15:00 +21°C° 0 mm 3 mps 750 mmHg 40%
    16:00 +21°C° 0 mm 3 mps 750 mmHg 41%
    17:00 +20°C° 0 mm 3 mps 750 mmHg 44%
    18:00 +19°C° 0 mm 2 mps 750 mmHg 47%
    19:00 +18°C° 0 mm 2 mps 749 mmHg 50%
    20:00 +16°C° 0 mm 1 mps 750 mmHg 57%
    21:00 +14°C° 0 mm 1 mps 750 mmHg 64%
    22:00 +11°C° 0 mm 0 mps 750 mmHg 71%
    23:00 +12°C° 0 mm 1 mps 750 mmHg 71%

    Tomorrow, 31 May, Sunday

    Time Temperature Precipitation Wind Pressure Humidity
    00:00 +12°C° 0 mm 1 mps 750 mmHg 71%
    01:00 +12°C° 0 mm 2 mps 750 mmHg 71%
    02:00 +10°C° 0 mm 2 mps 750 mmHg 72%
    03:00 +10°C° 0 mm 2 mps 750 mmHg 73%
    04:00 +10°C° 0 mm 3 mps 751 mmHg 74%
    05:00 +11°C° 0 mm 3 mps 751 mmHg 69%
    06:00 +12°C° 0 mm 4 mps 751 mmHg 65%
    07:00 +14°C° 0 mm 4 mps 751 mmHg 61%
    08:00 +15°C° 0 mm 5 mps 751 mmHg 54%
    09:00 +16°C° 0 mm 5 mps 752 mmHg 48%
    10:00 +17°C° 0 mm 5 mps 752 mmHg 42%
    11:00 +17°C° 0 mm 5 mps 752 mmHg 40%
    12:00 +19°C° 0 mm 5 mps 752 mmHg 38%
    13:00 +19°C° 0 mm 5 mps 751 mmHg 36%
    14:00 +19°C° 0 mm 5 mps 751 mmHg 36%
    15:00 +19°C° 0 mm 4 mps 751 mmHg 35%
    16:00 +19°C° 0 mm 4 mps 751 mmHg 35%
    17:00 +19°C° 0 mm 3 mps 751 mmHg 38%
    18:00 +18°C° 0 mm 2 mps 751 mmHg 41%
    19:00 +18°C° 0 mm 1 mps 750 mmHg 45%
    20:00 +16°C° 0 mm 1 mps 750 mmHg 48%
    21:00 +14°C° 0 mm 1 mps 750 mmHg 52%
    22:00 +12°C° 0 mm 1 mps 750 mmHg 55%
    23:00 +12°C° 0 mm 1 mps 750 mmHg 56%

    Day after tomorrow, 1 June, Monday

    Time Temperature Precipitation Wind Pressure Humidity
    00:00 +12°C° 0 mm 1 mps 750 mmHg 56%
    01:00 +11°C° 0 mm 1 mps 750 mmHg 57%
    02:00 +10°C° 0 mm 2 mps 750 mmHg 58%
    03:00 +10°C° 0 mm 2 mps 750 mmHg 58%
    04:00 +10°C° 0 mm 2 mps 750 mmHg 59%
    05:00 +13°C° 0 mm 2 mps 750 mmHg 56%
    06:00 +14°C° 0 mm 2 mps 750 mmHg 53%
    07:00 +16°C° 0 mm 2 mps 750 mmHg 50%
    08:00 +17°C° 0 mm 2 mps 750 mmHg 47%
    09:00 +19°C° 0 mm 2 mps 751 mmHg 45%
    10:00 +20°C° 0 mm 2 mps 751 mmHg 42%
    11:00 +21°C° 0 mm 2 mps 751 mmHg 42%
    12:00 +21°C° 0 mm 2 mps 751 mmHg 41%
    13:00 +21°C° 0 mm 2 mps 750 mmHg 41%
    14:00 +21°C° 0 mm 3 mps 750 mmHg 41%
    15:00 +21°C° 0 mm 3 mps 750 mmHg 42%
    16:00 +20°C° 0 mm 3 mps 749 mmHg 43%
    17:00 +20°C° 0 mm 3 mps 749 mmHg 45%
    18:00 +19°C° 0 mm 3 mps 749 mmHg 48%
    19:00 +18°C° 0 mm 3 mps 748 mmHg 51%
    20:00 +16°C° 0 mm 2 mps 748 mmHg 57%
    21:00 +14°C° 0 mm 2 mps 748 mmHg 62%
    22:00 +13°C° 0 mm 2 mps 748 mmHg 68%
    23:00 +12°C° 0 mm 2 mps 747 mmHg 69%

    2 June, Tuesday

    Time Temperature Precipitation Wind Pressure Humidity
    00:00 +12°C° 0 mm 2 mps 747 mmHg 70%
    01:00 +10°C° 0 mm 2 mps 747 mmHg 71%
    02:00 +10°C° 0 mm 2 mps 746 mmHg 72%
    03:00 +10°C° 0 mm 2 mps 746 mmHg 74%
    04:00 +10°C° 0 mm 2 mps 746 mmHg 75%
    05:00 +12°C° 0 mm 2 mps 746 mmHg 68%
    06:00 +14°C° 0 mm 2 mps 745 mmHg 62%
    07:00 +16°C° 0 mm 2 mps 745 mmHg 55%
    08:00 +17°C° 0 mm 3 mps 745 mmHg 51%
    09:00 +19°C° 0 mm 4 mps 745 mmHg 47%
    10:00 +20°C° 0 mm 4 mps 745 mmHg 43%
    11:00 +20°C° 0 mm 4 mps 744 mmHg 43%
    12:00 +20°C° 0 mm 5 mps 744 mmHg 42%
    13:00 +21°C° 0 mm 5 mps 744 mmHg 42%
    14:00 +20°C° 0 mm 5 mps 743 mmHg 42%
    15:00 +20°C° 0 mm 5 mps 743 mmHg 42%
    16:00 +20°C° 0 mm 5 mps 742 mmHg 43%
    17:00 +19°C° 0 mm 4 mps 742 mmHg 47%
    18:00 +18°C° 0 mm 4 mps 741 mmHg 50%
    19:00 +17°C° 0 mm 4 mps 741 mmHg 54%
    20:00 +14°C° 0 mm 3 mps 740 mmHg 61%
    21:00 +12°C° 0 mm 3 mps 740 mmHg 68%
    22:00 +12°C° 0 mm 2 mps 740 mmHg 75%
    23:00 +10°C° 0 mm 2 mps 739 mmHg 75%

    3 June, Wednesday

    Time Temperature Precipitation Wind Pressure Humidity
    00:00 +10°C° 0 mm 2 mps 739 mmHg 75%
    01:00 +10°C° 0 mm 2 mps 739 mmHg 75%
    02:00 +10°C° 0 mm 2 mps 738 mmHg 75%
    03:00 +9°C° 0 mm 2 mps 738 mmHg 75%
    04:00 +9°C° 0 mm 2 mps 738 mmHg 75%
    05:00 +12°C° 0 mm 2 mps 738 mmHg 69%
    06:00 +13°C° 0 mm 2 mps 738 mmHg 62%
    07:00 +15°C° 0 mm 2 mps 738 mmHg 55%
    08:00 +16°C° 0 mm 3 mps 738 mmHg 49%
    09:00 +18°C° 0 mm 3 mps 738 mmHg 42%
    10:00 +19°C° 0 mm 4 mps 738 mmHg 36%
    11:00 +20°C° 0 mm 4 mps 738 mmHg 35%
    12:00 +21°C° 0 mm 4 mps 738 mmHg 34%
    13:00 +21°C° 0 mm 5 mps 738 mmHg 34%
    14:00 +21°C° 0 mm 5 mps 737 mmHg 34%
    15:00 +21°C° 0 mm 5 mps 737 mmHg 35%
    16:00 +21°C° 0 mm 5 mps 737 mmHg 35%
    17:00 +20°C° 0 mm 5 mps 737 mmHg 39%
    18:00 +19°C° 0 mm 5 mps 736 mmHg 42%
    19:00 +18°C° 0 mm 4 mps 736 mmHg 45%
    20:00 +15°C° 0 mm 4 mps 736 mmHg 52%
    21:00 +14°C° 0 mm 4 mps 735 mmHg 59%
    22:00 +12°C° 0 mm 3 mps 735 mmHg 66%
    23:00 +11°C° 0 mm 3 mps 735 mmHg 70%

    4 June, Thursday

    Time Temperature Precipitation Wind Pressure Humidity
    00:00 +10°C° 0 mm 3 mps 735 mmHg 73%
    01:00 +10°C° 0 mm 3 mps 735 mmHg 77%
    02:00 +9°C° 0 mm 3 mps 734 mmHg 80%
    03:00 +8°C° 0 mm 3 mps 734 mmHg 82%
    04:00 +6°C° 0 mm 4 mps 733 mmHg 85%
    05:00 +9°C° 0 mm 3 mps 733 mmHg 77%
    06:00 +11°C° 0 mm 3 mps 733 mmHg 69%
    07:00 +12°C° 0 mm 3 mps 733 mmHg 62%
    08:00 +13°C° 0 mm 4 mps 733 mmHg 55%
    09:00 +15°C° 0 mm 4 mps 733 mmHg 48%
    10:00 +17°C° 0 mm 4 mps 733 mmHg 41%
    11:00 +16°C° 0 mm 5 mps 732 mmHg 38%
    12:00 +17°C° 0 mm 6 mps 732 mmHg 35%
    13:00 +17°C° 0 mm 7 mps 732 mmHg 32%
    14:00 +16°C° 0 mm 7 mps 732 mmHg 34%
    15:00 +15°C° 0 mm 7 mps 731 mmHg 36%
    16:00 +13°C° 0 mm 8 mps 731 mmHg 37%
    17:00 +12°C° 0 mm 7 mps 730 mmHg 44%
    18:00 +10°C° 0 mm 7 mps 730 mmHg 51%
    19:00 +9°C° 0 mm 7 mps 729 mmHg 58%
    20:00 +8°C° 0.1 mm 7 mps 729 mmHg 68%
    21:00 +7°C° 0.1 mm 6 mps 728 mmHg 77%
    22:00 +5°C° 0.1 mm 6 mps 728 mmHg 86%
    23:00 +7°C° 0.3 mm 6 mps 727 mmHg 88%
    Show more